Regional Weather Roundup
Issued by NWS

Home | Current Version | Previous Version | Graphics & Text | Print | Product List | Glossary On
Versions: 1 2 3 4 5 6 7 8 9 10 11 12 13 14 15 16 17 18 19 20 21 22 23 24 25 26 27 28 29 30 31 32 33 34 35 36 37 38 39 40 41 42 43 44 45 46 47 48 49 50
000
ASUS43 KDMX 250106
RWRIA

WEATHER ROUNDUP FOR IOWA
NATIONAL WEATHER SERVICE DES MOINES IA
800 PM CDT MON JUL 24 2017

NOTE: "FAIR" INDICATES FEW OR NO CLOUDS BELOW 12,000 FEET WITH NO
SIGNIFICANT WEATHER AND/OR OBSTRUCTIONS TO VISIBILITY.

* - THESE STATIONS ARE NOT NWS STATIONS...THUS NOT UNDER NWS
QUALITY CONTROL.  THEY ALSO DO NOT REPORT WEATHER SUCH
AS PRECIPITATION OR FOG.

IAZ001>003-012>014-020>022-031>034-043>046-250200-
   NORTHWEST IOWA

CITY           SKY/WX    TMP DP  RH WIND       PRES   REMARKS
CARROLL *      CLEAR     77  68  73 E7        29.99R
CHEROKEE *     CLEAR     78  64  61 SE7       29.98R HX  80
DENISON *      CLEAR     79  66  65 SE5       29.99S HX  81
ORANGE CITY *  CLEAR     79  66  65 SE6       29.96S HX  81
SHELDON *      CLEAR     77  64  65 SE9       29.95S
SIOUX CITY     CLEAR     81  66  60 SE13      29.93S HX  83
SPENCER        CLEAR     78  62  57 SE13      29.98F HX  80
STORM LAKE *   CLEAR     75  64  69 SE8       29.99S
$$

IAZ055>058-069>071-079>083-090>094-250200-
   SOUTHWEST IOWA

CITY           SKY/WX    TMP DP  RH WIND       PRES   REMARKS
ATLANTIC *     CLEAR     81  64  57 S6        29.98R HX  82
AUDUBON *      CLEAR     79  68  69 E5        30.00R HX  81
CLARINDA *     CLEAR     79  70  73 CALM      30.00S HX  81
COUNCIL BLFS * CLEAR     79  70  73 SE8       29.97S HX  81
CRESTON *      CLEAR     79  64  61 S6        30.01R HX  81
HARLAN  *      CLEAR     79  66  65 S7        30.01S HX  81
LAMONI         CLEAR     80  64  58 SE5       30.00R HX  82
RED OAK *      CLEAR     79  68  69 SE5       29.99R HX  81
SHENANDOAH *   CLEAR     79  70  73 SE5       29.98S HX  81
$$

IAZ047>049-059>061-072>074-084-250200-
   CENTRAL IOWA

CITY           SKY/WX    TMP DP  RH WIND       PRES   REMARKS
AMES           CLEAR     76  65  68 SE6       30.01S
ANKENY *       CLEAR     77  64  65 E7        30.01S
BOONE *        CLEAR     75  64  69 E8        30.01R
CHARITON *     CLEAR     81  59  47 SE5       30.00S HX  81
DES MOINES     PTCLDY    80  63  55 E8        29.99F HX  81
GRINNELL*      CLEAR     74  65  72 E6        30.04S
KNOXVILLE *    CLEAR     79  61  53 E6        29.99S HX  80
MARSHALLTOWN   CLEAR     74  65  73 E6        30.02S
NEWTON *       CLEAR     77  66  69 E8        30.02S
PELLA *        CLEAR     80  60  50 E5        30.02R HX  81
$$

IAZ004>006-015-016-023>025-035-036-250200-
   NORTH CENTRAL IOWA

CITY           SKY/WX    TMP DP  RH WIND       PRES   REMARKS
ALGONA *       CLEAR     75  64  69 SE8G16    30.02R
ESTHERVILLE    CLEAR     74  65  73 SE7       29.99S
FORT DODGE *   CLEAR     75  63  64 E8        30.01F
MASON CITY     PTCLDY    71  63  75 SE6       30.06R
FOREST CITY *    N/A     73  63  68 SE7       30.04R
WEBSTER CITY * CLEAR     75  63  64 SE7       30.00S
IOWA FALLS *     N/A     75  65  72 E5        30.04S
$$

IAZ007>011-017>019-026>030-037>042-050>054-066-250200-
   NORTHEAST IOWA

CITY           SKY/WX    TMP DP  RH WIND       PRES   REMARKS
CEDAR RAPIDS   CLEAR     71  65  81 E8        30.04R
CHARLES CITY * CLEAR     72  64  78 E8        30.05F
DECORAH *      MOCLDY    70  63  78 CALM      30.07R
DUBUQUE        CLEAR     71  62  73 E6        30.07S
MONTICELLO *   CLEAR     72  64  78 E3        30.05S
OELWEIN *        N/A    N/A N/A N/A MISG        N/A
WATERLOO       CLEAR     73  62  68 E8        30.04R
$$

IAZ064-065-067-068-078-250200-
   EAST CENTRAL IOWA

CITY           SKY/WX    TMP DP  RH WIND       PRES   REMARKS
DAVENPORT      CLEAR     70  61  73 E5        30.07S
IOWA CITY      CLEAR     74  63  68 E7        30.05S
MT. PLEASANT * CLEAR     73  64  74 E7        30.03S
MUSCATINE *    CLEAR     75  63  64 E7        30.04R
QUAD CITIES    CLEAR     73  62  68 SE3       30.04S
$$

IAZ062-063-075>077-085>089-095>099-250200-
   SOUTHEAST IOWA

CITY           SKY/WX    TMP DP  RH WIND       PRES   REMARKS
BURLINGTON     CLEAR     73  65  75 E7        30.03R
FAIRFIELD *    CLEAR     75  63  64 E9        30.02R
FORT MADISON * CLEAR     73  66  78 E7        30.04R
KEOKUK *       CLEAR     75  66  73 E8G15     30.02R
OSKALOOSA *      N/A     76  65  67 E6        30.02R
CENTERVILLE *    N/A     77  63  61 CALM      30.03R
OTTUMWA        CLEAR     78  65  63 E10       30.01R HX  80
WASHINGTON *   CLEAR     73  66  78 E7        30.05R
$$

ABBREVIATIONS USED IN REMARKS
   TC - TEMPERATURES IN CELSIUS
  WCI - WIND CHILL INDEX
   HX - HEAT INDEX
  VSB - VISIBILITY
$$





USA.gov is the U.S. government's official web portal to all federal, state and local government web resources and services.